Weather History for Port Angeles, WA

Change the Weather History Date:

Saturday, January 19, 2013

  Actual Average Record
Temperature  
Mean Temperature 36 °F -  
Max Temperature 41 °F 47 °F 68 °F (2005)
Min Temperature 30 °F 35 °F 19 °F (1962)
Degree Days  
Heating Degree Days 30    
Moisture  
Dew Point 34 °F    
Average Humidity 88    
Maximum Humidity 100    
Minimum Humidity 79    
Precipitation  
Precipitation 0.00 in - - ()
Sea Level Pressure  
Sea Level Pressure 30.36 in    
Wind  
Wind Speed 7 mph (SE)    
Max Wind Speed 9 mph    
Max Gust Speed -    
Visibility 10 miles    
Events      
Averages and records for this station are not official NWS values.
T = Trace of Precipitation, MM = Missing Value Source: NWS Daily Summary

Daily Weather History Graph

Daily Weather History Graph

Search for Another Location

Airport:

Trip Planner

Search our weather history database for the weather conditions in past years. The results will help you decide how hot, cold, wet, or windy it might be!

Date:

Astronomy

Jan. 19, 2013 Rise Set
Actual Time 7:55 AM PST 4:54 PM PST
Civil Twilight 7:21 AM PST 5:28 PM PST
Nautical Twilight 6:42 AM PST 6:07 PM PST
Astronomical Twilight 6:05 AM PST 6:44 PM PST
Moon 11:28 AM PST (1/19) 1:29 AM PST (1/19)
Length of Visible Light 10h 07m
Length of Day
8h 58m
First Quarter, 58% of the Moon is Illuminated
Jan 19
First Quarter
Jan 26
Full
Feb 3
Last Quarter
Feb 9
New
Feb 17
First Quarter

Hourly Weather History & Observations

Time (PST) Temp. Windchill Dew Point Humidity Pressure Visibility Wind Dir Wind Speed Gust Speed Precip Events Conditions
12:03 AM 37.9 °F 32.7 °F 34.0 °F 86% 30.34 in 10.0 mi SSE 6.9 mph - N/A   Overcast
12:13 AM 37.9 °F 33.5 °F 34.0 °F 86% 30.34 in 10.0 mi SSE 5.8 mph - N/A   Overcast
12:53 AM 37.9 °F - 34.0 °F 86% 30.34 in 10.0 mi North - - N/A   Overcast
1:53 AM 37.9 °F 33.5 °F 34.0 °F 86% 30.35 in 10.0 mi SE 5.8 mph - N/A   Overcast
2:33 AM 37.9 °F 32.7 °F 35.1 °F 89% 30.35 in 10.0 mi SE 6.9 mph - N/A   Overcast
2:53 AM 37.9 °F 32.7 °F 35.1 °F 89% 30.36 in 10.0 mi SE 6.9 mph - N/A   Overcast
3:53 AM 37.0 °F 32.4 °F 34.0 °F 89% 30.36 in 10.0 mi SE 5.8 mph - N/A   Overcast
4:53 AM 37.0 °F 32.4 °F 34.0 °F 89% 30.36 in 10.0 mi SE 5.8 mph - N/A   Overcast
5:37 AM 37.0 °F 31.0 °F 34.0 °F 89% 30.35 in 10.0 mi SSE 8.1 mph - N/A   Overcast
5:53 AM 37.0 °F 31.0 °F 34.0 °F 89% 30.36 in 10.0 mi SSE 8.1 mph - N/A   Overcast
6:53 AM 37.0 °F 32.4 °F 34.0 °F 89% 30.35 in 10.0 mi SE 5.8 mph - N/A   Overcast
7:02 AM 37.0 °F 32.4 °F 34.0 °F 89% 30.34 in 10.0 mi SE 5.8 mph - N/A   Overcast
7:53 AM 37.0 °F 31.0 °F 34.0 °F 89% 30.36 in 10.0 mi SSE 8.1 mph - N/A   Overcast
8:15 AM 37.0 °F 31.6 °F 34.0 °F 89% 30.36 in 10.0 mi SSE 6.9 mph - N/A   Overcast
8:38 AM 37.0 °F 30.4 °F 34.0 °F 89% 30.36 in 10.0 mi SSE 9.2 mph - N/A   Overcast
8:53 AM 37.9 °F 32.1 °F 34.0 °F 86% 30.38 in 10.0 mi SE 8.1 mph - N/A   Overcast
9:53 AM 39.0 °F 33.4 °F 34.0 °F 82% 30.38 in 10.0 mi SE 8.1 mph - N/A   Overcast
10:53 AM 39.9 °F 34.5 °F 35.1 °F 83% 30.38 in 10.0 mi SE 8.1 mph - N/A   Overcast
11:53 AM 41.0 °F 35.2 °F 35.1 °F 79% 30.37 in 10.0 mi ESE 9.2 mph - N/A   Overcast
12:53 PM 39.9 °F 33.9 °F 35.1 °F 83% 30.36 in 10.0 mi ESE 9.2 mph - N/A   Overcast
1:42 PM 39.9 °F 34.5 °F 35.1 °F 83% 30.35 in 10.0 mi East 8.1 mph - N/A   Overcast
1:53 PM 39.9 °F 36.7 °F 35.1 °F 83% 30.36 in 10.0 mi East 4.6 mph - N/A   Overcast
2:53 PM 39.9 °F 35.8 °F 35.1 °F 83% 30.35 in 10.0 mi East 5.8 mph - N/A   Overcast
3:53 PM 39.9 °F 35.8 °F 35.1 °F 83% 30.36 in 10.0 mi ESE 5.8 mph - N/A   Overcast
4:51 PM 37.4 °F 32.8 °F 33.8 °F 87% 30.35 in 10.0 mi East 5.8 mph - N/A   Scattered Clouds
4:53 PM 37.9 °F 34.4 °F 34.0 °F 86% 30.36 in 10.0 mi East 4.6 mph - N/A   Partly Cloudy
5:53 PM 36.0 °F 33.3 °F 34.0 °F 93% 30.36 in 9.0 mi ESE 3.5 mph - N/A   Clear
6:53 PM 33.1 °F 28.7 °F 30.9 °F 92% 30.36 in 8.0 mi SE 4.6 mph - N/A   Clear
7:53 PM 32.0 °F 26.4 °F 30.9 °F 96% 30.38 in 9.0 mi SE 5.8 mph - N/A   Clear
8:20 PM 33.1 °F 26.9 °F 30.9 °F 92% 30.36 in 9.0 mi SSE 6.9 mph - N/A   Partly Cloudy
8:53 PM 32.0 °F 27.5 °F 30.9 °F 96% 30.37 in 10.0 mi SE 4.6 mph - N/A   Clear
9:53 PM 30.9 °F 24.3 °F 30.9 °F 100% 30.38 in 10.0 mi SE 6.9 mph - N/A   Clear
10:53 PM 33.1 °F 26.1 °F 30.9 °F 92% 30.37 in 10.0 mi SE 8.1 mph - N/A   Clear
11:19 PM 30.9 °F 25.2 °F 30.0 °F 96% 30.36 in 6.0 mi SE 5.8 mph - N/A   Scattered Clouds
11:27 PM 35.1 °F 30.1 °F 33.1 °F 92% 30.37 in 7.0 mi SE 5.8 mph - N/A   Mostly Cloudy
11:53 PM 36.0 °F 31.1 °F 34.0 °F 93% 30.39 in 10.0 mi ESE 5.8 mph - N/A   Overcast